Date,TemperatureHighF,TemperatureAvgF,TemperatureLowF,DewpointHighF,DewpointAvgF,DewpointLowF,HumidityHigh,HumidityAvg,HumidityLow,PressureMaxIn,PressureMinIn,WindSpeedMaxMPH,WindSpeedAvgMPH,GustSpeedMaxMPH,PrecipitationSumIn
2013-1-2,-200,0,200,-100,-100,-100,0,0,100,30.10,30.10,0,0,6,0.00
2013-1-7,68,68,68,48,48,47,49,48,46,30.15,30.13,0,0,0,0.00
2013-1-8,69,65,52,53,49,47,84,58,49,30.21,30.10,1,0,1,0.01
2013-1-9,63,62,61,46,46,44,55,54,54,30.09,30.05,0,0,0,0.00
2013-1-23,70,70,69,48,47,46,45,45,44,30.01,29.97,0,0,0,0.00
2013-1-24,71,70,68,51,50,49,51,50,49,30.13,30.09,0,0,0,0.00
2013-1-25,72,70,68,53,52,50,54,53,52,30.15,30.02,0,0,0,0.00
2013-1-30,64,5,64,-100,-100,-100,0,0,100,30.26,30.23,0,-922,3,0.00
2013-1-31,65,16,65,47,-64,-100,52,15,46,30.27,30.16,3,-729,3,0.00
2013-2-12,70,69,67,48,48,47,48,47,46,30.33,30.26,0,0,0,0.00
2013-2-13,54,19,51,48,-48,-100,86,29,78,30.32,30.19,6,1,8,0.00
2013-2-19,66,63,63,47,45,44,54,51,47,29.82,29.75,3,0,6,0.04
2013-2-20,60,2,60,42,-96,-100,50,1,50,29.99,29.95,0,-973,6,0.00
2013-2-22,72,72,72,-21,-21,-21,2,2,2,30.19,30.19,0,0,0,0.00
2013-2-25,69,69,67,18,14,9,14,12,10,30.22,30.16,0,0,0,0.00
2013-2-26,78,72,65,17,-31,-100,15,7,1,30.20,30.12,0,0,0,0.00
2013-3-8,70,68,66,47,45,44,48,44,41,29.90,29.87,0,0,0,0.00
2013-3-11,70,69,68,48,47,45,47,45,44,30.22,30.12,0,0,0,0.00
2013-3-21,68,68,68,46,46,46,46,46,45,30.01,30.00,0,0,0,0.00
2013-3-25,-200,0,200,-100,-100,-100,0,0,100,30.02,29.96,0,-888,0,0.00
2013-3-26,-200,0,200,-100,-100,-100,0,0,100,30.02,30.02,0,-999,0,0.00
2013-3-28,-200,0,200,-100,-100,-100,0,0,100,30.02,30.02,0,-999,0,0.00
2013-3-29,76,10,70,40,-83,-100,32,4,24,30.04,29.99,12,-852,16,0.00
2013-4-1,74,73,71,34,28,26,23,19,17,30.13,30.10,0,0,0,0.00
2013-4-2,73,50,59,53,7,-100,54,37,49,30.16,30.08,0,-272,0,0.06
2013-4-3,74,56,71,55,21,-100,55,42,43,30.11,29.96,0,-214,0,0.05
2013-4-4,72,70,70,54,52,51,54,53,51,30.07,30.03,0,0,0,0.00
2013-4-10,71,71,71,52,51,51,50,50,50,30.14,30.11,0,0,0,0.06
2013-4-16,-200,0,200,-100,-100,-100,0,0,100,30.02,30.02,0,-999,1,0.00
2013-4-24,-200,0,200,-100,-100,-100,0,0,100,29.85,29.83,0,-999,0,0.00
2013-4-25,-200,0,200,-100,-100,-100,0,0,100,30.06,30.02,0,-999,0,0.00
2013-4-26,-200,0,200,-100,-100,-100,0,0,100,30.21,30.19,0,-999,0,0.00
2013-4-30,-200,0,200,-100,-100,-100,0,0,100,29.83,29.81,0,-999,0,0.00
2013-5-6,72,70,71,54,48,-100,52,49,50,29.85,-32.77,0,-28,0,0.00
2013-5-7,71,71,71,53,52,52,52,52,51,30.00,30.00,0,0,0,0.00
2013-5-15,77,74,69,52,50,49,49,43,38,30.06,30.03,0,0,12,0.00
2013-5-20,74,72,71,55,52,51,53,49,46,29.98,29.95,0,0,12,0.00
2013-5-22,72,72,72,43,43,42,35,35,34,29.95,29.92,0,0,0,0.00
2013-5-23,73,70,67,47,45,44,43,40,38,29.98,29.94,0,0,0,0.00
2013-5-24,71,70,69,47,47,46,44,44,43,29.99,29.98,0,0,0,0.00
2013-6-3,70,68,67,57,55,54,66,63,60,29.78,29.77,12,10,22,0.00
2013-6-4,72,72,71,53,53,52,52,52,51,29.92,29.89,0,0,22,0.00
2013-6-6,74,64,73,55,36,-100,53,46,52,29.85,29.84,0,0,0,0.00
2013-6-7,76,73,71,58,55,52,55,54,52,29.85,29.72,0,0,0,0.00
2013-6-10,75,73,71,57,55,53,54,53,52,29.91,29.87,0,0,0,0.00
2013-6-11,75,73,72,56,55,53,54,52,51,29.97,29.91,0,0,0,0.00
2013-6-12,70,70,70,52,52,52,53,53,53,29.95,29.94,0,0,0,0.00
2013-6-13,73,72,70,53,52,50,50,49,48,30.07,30.02,0,0,0,0.06
2013-6-14,76,73,70,54,52,50,51,48,45,29.92,29.83,0,0,0,0.01
2013-6-17,71,70,70,53,52,51,54,52,51,30.08,30.07,0,0,0,0.00
2013-6-18,73,71,70,56,54,53,56,55,55,30.03,30.01,0,0,0,0.00